Hourly Weather Roundup
Issued by NWS Central Illinois

Home | Current Version | Previous Version | Text Only | Print | Product List | Glossary On
Versions: 1 2 3 4 5 6 7 8 9 10 11 12 13 14 15 16 17 18 19 20 21 22 23 24 25 26 27 28 29 30 31 32 33 34 35 36 37 38 39 40 41 42 43 44 45 46 47 48 49 50
000
NZUS43 KILX 240810
HWRILX

AREA WEATHER ROUNDUP
NATIONAL WEATHER SERVICE, LINCOLN IL
300 AM CDT THU JUL 24 2014


CITY           SKY/WX    TMP DP  RH WIND       PRES   REMARKS
BLOOMINGTON    CLEAR     56  49  77 N12       30.12F
CHAMPAIGN      CLEAR     57  52  83 N12       30.09F
DECATUR        NOT AVBL
FLORA          CLEAR     55  50  84 NW3       30.07F
GALESBURG      CLEAR     58  55  89 CALM      30.16R
JACKSONVILLE   CLEAR     57  55  91 NE3       30.13S
LACON          CLEAR     55  52  89 CALM      30.13F
LAWRENCEVILLE  PTCLDY    58  52  80 NW5       30.04F
LITCHFIELD     CLEAR     55  52  89 N6        30.10F
$$


CITY           SKY/WX    TMP DP  RH WIND       PRES   REMARKS
LINCOLN        CLEAR     57  53  85 CALM      30.10S
MACOMB         CLEAR     57  56  98 E6        30.16F
MATTOON        CLEAR     53  49  86 N6        30.07F
MT CARMEL AP   MOCLDY    59  54  82 NW5       30.04S
OLNEY-NOBLE AP CLEAR     54  52  94 NW5       30.06S
PARIS          PTCLDY    55  53  92 N3        30.07F
PEORIA         CLEAR     62  53  72 CALM      30.13F
PONTIAC        CLEAR     54  52  94 N5        30.12F
RANTOUL        CLEAR     59  50  74 N12G17    30.11S
ROBINSON       MOCLDY    59  54  82 N6        30.06F
SPRINGFIELD    CLEAR     57  54  89 N3        30.12F
TAYLORVILLE    CLEAR     52  50  93 N6        30.10F
$$

...REGIONAL REPORTS...


CITY           SKY/WX    TMP DP  RH WIND       PRES   REMARKS
CHICAGO O`HARE CLEAR     58  50  75 N8        30.13F
KANKAKEE       CLEAR     56  53  89 NW3       30.11F
MOLINE         CLEAR     59  55  87 CALM      30.15F
MOUNT VERNON   CLEAR     55  48  76 N3        30.06F
PITTSFIELD     CLEAR     60  56  86 CALM      30.13S
QUINCY         CLEAR     61  56  83 NE3       30.13R
ROCKFORD       CLEAR     58  48  69 NE5       30.18S
$$


CITY           SKY/WX    TMP DP  RH WIND       PRES   REMARKS
BURLINGTON     CLEAR     60  58  92 NE3       30.14S
CEDAR RAPIDS   CLEAR     60  56  86 NW7       30.15R
DES MOINES     CLEAR     66  59  78 CALM      30.16S
KIRKSVILLE     CLEAR     59  57  93 N3        30.15F
OTTUMWA        CLEAR     58  56  93 W3        30.15R
ST LOUIS       CLEAR     66  53  63 NE9       30.10F
$$


CITY           SKY/WX    TMP DP  RH WIND       PRES   REMARKS
TERRE HAUTE    PTCLDY    57  51  80 N7        30.06S
EVANSVILLE     MOCLDY    63  55  75 N7        30.01F
INDIANAPOLIS   MOCLDY    60  55  83 N8        30.03F
LAFAYETTE      CLEAR     55  53  93 N6        30.08S
MADISON        CLEAR     54  51  90 CALM      30.18S
MILWAUKEE      CLEAR     57  50  77 NW3       30.16S
$$




USA.gov is the U.S. government's official web portal to all federal, state and local government web resources and services.